Location: Dob?e?
(49.9411°N, 15.1496°E)
Time: 12:09:30
(UTC+00:00)

DELFI C3 - Pass Details

Date: 01 November 2021
Orbit: 529 x 543 km, 97.4° (Epoch: 29 November)

Event Time Altitude Azimuth Distance (km) Brightness Sun altitude
Exits shadow 19:01:11 17° 301° (WNW) 1,380 ? -33.2°
Drops below altitude 10° 19:02:39 10° 320° (NW) 1,790 ? -33.4°
Sets 19:05:09 0° 336° (NNW) 2,688 ? -33.8°
